Location: Borovka
(49.7741°N, 14.5280°E)
Time: 06:53:26
(UTC+00:00)

Cosmos 1812 - Pass Details

Date: 17 November 2025
Orbit: 338 x 348 km, 82.5° (Epoch: 12 December)

Event Time Altitude Azimuth Distance (km) Brightness Sun altitude
Rises 17:21:53 0° 202° (SSW) 2,249 6.3 -20.1°
Reaches altitude 10° 17:23:55 10° 209° (SSW) 1,397 5.3 -20.4°
Maximum altitude 17:26:50 43° 283° (WNW) 546 3.2 -20.9°
Enters shadow 17:27:53 30° 334° (NNW) 717 3.6 -21.0°
